Terminal Aerodrome Forecast
Issued by NWS Greer, SC

Home | Current Version | Previous Version | Text Only | Print | Product List | Glossary On
Versions: 1 2 3 4 5 6 7 8 9 10 11 12 13 14 15 16 17 18 19 20 21 22 23 24 25 26 27 28 29 30 31 32 33 34 35 36 37 38 39 40 41 42 43 44 45 46 47 48 49 50
000
FTUS42 KGSP 242200 AAB
TAFCLT
TAF AMD
KCLT 242242Z 2423/2518 25008KT P6SM TSRA BKN040CB OVC100
      TEMPO 2423/2424 VRB15G25KT 2SM +TSRA BR OVC020CB
     FM250000 26005KT P6SM VCSH BKN045
     FM250100 VRB03KT P6SM SCT045 BKN100
     FM251000 03004KT 5SM BR BKN025
     FM251400 04005KT P6SM SCT030=

USA.gov is the U.S. government's official web portal to all federal, state and local government web resources and services.